contact:dominique.lefevre@mio.osupytheas.fr, maurice.libes@osupytheas.fr, didier.mallarino@osupytheas.fr
Project:EMSO http://www.emso-fr.org/EMSO-France
Depth: 2436.0 m
Title:EMSO Ligure Ouest : Data MII capteur AQUADOPP
Date,Latitude,Longitude,X_East,Y_North,Z_Up,Amplitude_X,Amplitude_Y,Amplitude_Z,Batterie,SoundSpeed,Heading,Pitch,Roll,Pressure,TIS,Speed,Direction
, degrees North, degrees East, m.s-1, m.s-1,m.s-1, 1, 1, 1, Volt, m.s-1, degree, degree, degree, dbar, degree_C, m.s-1, degree
2019-12-21T00:04:03,42.805,6.029,0.018,0.034,-0.033,99.0,105.0,98.0,13.3,1505.3,326.6,-0.7,1.8,2470.241,13.31,0.038,27.9
2019-12-21T00:07:03,42.805,6.029,-0.005,0.033,-0.032,99.0,104.0,99.0,13.3,1505.3,327.2,-0.7,1.8,2470.192,13.32,0.033,351.4
2019-12-21T00:10:03,42.805,6.029,0.027,0.036,-0.017,98.0,104.0,98.0,13.4,1505.3,325.0,-0.7,1.9,2470.216,13.32,0.045,36.9
2019-12-21T00:13:03,42.805,6.029,0.01,0.028,-0.057,99.0,103.0,98.0,13.3,1505.3,323.2,-0.7,1.9,2470.187,13.32,0.029,19.6
2019-12-21T00:16:03,42.805,6.029,-0.021,0.034,-0.061,99.0,102.0,98.0,13.4,1505.3,327.8,-0.7,1.9,2470.205,13.33,0.039,328.3
2019-12-21T00:19:03,42.805,6.029,-0.018,0.037,-0.056,99.0,103.0,98.0,13.4,1505.3,326.7,-0.7,1.8,2470.198,13.32,0.041,334.1
2019-12-21T00:22:03,42.805,6.029,-0.009,0.03,-0.09,100.0,103.0,98.0,13.3,1505.3,326.0,-0.7,1.8,2470.203,13.33,0.031,343.3
2019-12-21T00:25:03,42.805,6.029,-0.041,0.024,-0.069,101.0,104.0,98.0,13.4,1505.3,328.4,-0.7,1.8,2470.198,13.33,0.047,300.3
2019-12-21T00:28:03,42.805,6.029,-0.013,0.021,-0.069,99.0,103.0,98.0,13.3,1505.3,327.9,-0.7,1.8,2470.227,13.33,0.024,328.2
2019-12-21T00:31:03,42.805,6.029,0.009,0.04,-0.026,98.0,103.0,98.0,13.3,1505.3,323.8,-0.7,1.8,2470.195,13.33,0.041,12.7
2019-12-21T00:34:03,42.805,6.029,0.001,0.024,-0.058,99.0,102.0,98.0,13.4,1505.3,326.0,-0.8,1.8,2470.158,13.33,0.024,2.4
2019-12-21T00:37:03,42.805,6.029,-0.029,0.025,-0.091,99.0,104.0,98.0,13.4,1505.3,325.8,-0.7,1.8,2470.185,13.33,0.038,310.8
2019-12-21T00:40:03,42.805,6.029,-0.018,0.016,-0.079,99.0,105.0,98.0,13.4,1505.3,323.0,-0.7,1.8,2470.212,13.33,0.024,311.6
2019-12-21T00:43:03,42.805,6.029,-0.053,0.039,-0.083,99.0,104.0,99.0,13.4,1505.3,326.4,-0.7,1.9,2470.177,13.33,0.065,306.3
2019-12-21T00:46:03,42.805,6.029,0.023,0.048,-0.024,100.0,103.0,98.0,13.4,1505.3,324.8,-0.7,1.9,2470.192,13.33,0.053,25.6
2019-12-21T00:49:03,42.805,6.029,-0.013,0.011,-0.06,99.0,106.0,99.0,13.3,1505.3,328.4,-0.7,1.8,2470.164,13.33,0.017,310.2
2019-12-21T00:52:03,42.805,6.029,0.01,0.023,-0.055,99.0,102.0,98.0,13.3,1505.3,324.5,-0.7,1.9,2470.184,13.33,0.025,23.5
2019-12-21T00:55:03,42.805,6.029,0.033,0.046,-0.035,100.0,103.0,98.0,13.4,1505.3,326.0,-0.7,1.8,2470.25,13.33,0.056,35.7
2019-12-21T00:58:03,42.805,6.029,0.016,0.017,-0.03,99.0,103.0,98.0,13.4,1505.3,324.3,-0.7,1.8,2470.179,13.33,0.023,43.3
2019-12-21T01:04:03,42.805,6.029,0.011,0.02,-0.023,100.0,104.0,98.0,13.4,1505.3,327.6,-0.8,1.8,2470.204,13.31,0.022,28.8
2019-12-21T01:07:03,42.805,6.029,0.03,0.032,-0.002,99.0,103.0,98.0,13.4,1505.3,325.0,-0.8,1.8,2470.217,13.31,0.043,43.1
2019-12-21T01:10:03,42.805,6.029,0.018,0.018,-0.038,98.0,103.0,98.0,13.4,1505.3,326.9,-0.7,1.8,2470.22,13.32,0.025,45.0
2019-12-21T01:13:03,42.805,6.029,-0.012,0.011,-0.07,97.0,104.0,99.0,13.3,1505.3,326.5,-0.7,1.9,2470.234,13.32,0.016,312.5
2019-12-21T01:16:03,42.805,6.029,-0.006,0.017,-0.05,99.0,104.0,98.0,13.3,1505.3,326.4,-0.7,1.8,2470.2,13.32,0.018,340.6
2019-12-21T01:19:03,42.805,6.029,-0.044,0.03,-0.111,98.0,105.0,98.0,13.3,1505.3,328.3,-0.7,1.8,2470.224,13.32,0.053,304.3
2019-12-21T01:22:03,42.805,6.029,0.006,0.005,-0.058,99.0,103.0,98.0,13.4,1505.3,324.4,-0.7,1.9,2470.248,13.32,0.007,50.2
2019-12-21T01:25:03,42.805,6.029,0.017,0.014,-0.053,100.0,103.0,98.0,13.3,1505.3,325.0,-0.7,1.9,2470.22,13.32,0.022,50.5
2019-12-21T01:28:03,42.805,6.029,-0.009,0.025,-0.043,99.0,104.0,98.0,13.4,1505.3,326.2,-0.7,1.9,2470.214,13.33,0.026,340.2
2019-12-21T01:31:03,42.805,6.029,-0.027,0.025,-0.051,99.0,106.0,98.0,13.4,1505.3,324.0,-0.7,1.8,2470.242,13.32,0.036,312.8
2019-12-21T01:34:03,42.805,6.029,0.018,0.022,-0.023,98.0,104.0,98.0,13.4,1505.3,327.4,-0.7,1.8,2470.242,13.32,0.028,39.3
2019-12-21T01:37:03,42.805,6.029,0.012,0.043,0.0,98.0,105.0,98.0,13.4,1505.3,326.2,-0.7,1.8,2470.253,13.33,0.044,15.6
2019-12-21T01:40:03,42.805,6.029,-0.013,0.018,-0.044,98.0,104.0,99.0,13.3,1505.3,323.3,-0.7,1.8,2470.244,13.33,0.022,324.2
2019-12-21T01:43:03,42.805,6.029,-0.009,0.031,-0.054,99.0,103.0,98.0,13.4,1505.3,328.0,-0.7,1.9,2470.223,13.33,0.032,343.8
2019-12-21T01:46:03,42.805,6.029,-0.026,0.028,-0.028,100.0,103.0,99.0,13.4,1505.3,326.3,-0.7,1.8,2470.215,13.33,0.038,317.1
2019-12-21T01:49:03,42.805,6.029,0.012,0.015,-0.057,98.0,105.0,99.0,13.3,1505.3,327.1,-0.7,1.8,2470.252,13.33,0.019,38.7
2019-12-21T01:52:03,42.805,6.029,-0.012,0.01,-0.056,101.0,103.0,98.0,13.4,1505.3,326.3,-0.7,1.9,2470.194,13.33,0.015,309.8
2019-12-21T01:55:03,42.805,6.029,-0.008,0.04,-0.075,100.0,103.0,99.0,13.3,1505.3,323.3,-0.7,1.8,2470.21,13.33,0.04,348.7
2019-12-21T01:58:03,42.805,6.029,-0.025,0.025,-0.061,100.0,103.0,99.0,13.3,1505.3,327.9,-0.8,1.8,2470.207,13.33,0.035,315.0
2019-12-21T02:04:03,42.805,6.029,-0.006,0.023,-0.029,101.0,103.0,98.0,13.3,1505.3,326.8,-0.8,1.8,2470.241,13.31,0.023,345.4
2019-12-21T02:10:03,42.805,6.029,0.002,0.005,-0.055,100.0,102.0,100.0,13.4,1505.2,326.7,-0.8,1.8,2470.265,13.3,0.005,21.8
2019-12-21T02:13:03,42.805,6.029,-0.03,0.028,-0.067,99.0,103.0,98.0,13.4,1505.3,326.2,-0.7,1.8,2470.263,13.31,0.041,313.0
2019-12-21T02:16:03,42.805,6.029,-0.006,0.017,-0.056,99.0,103.0,98.0,13.4,1505.3,325.8,-0.7,1.8,2470.258,13.31,0.018,340.6
2019-12-21T02:19:03,42.805,6.029,0.003,0.032,-0.05,101.0,103.0,98.0,13.4,1505.3,325.1,-0.7,1.8,2470.273,13.32,0.032,5.4
2019-12-21T02:22:03,42.805,6.029,0.036,0.027,-0.015,100.0,103.0,98.0,13.4,1505.3,325.5,-0.7,1.9,2470.277,13.32,0.045,53.1
2019-12-21T02:25:03,42.805,6.029,0.013,0.024,-0.02,100.0,102.0,97.0,13.3,1505.3,327.7,-0.7,1.8,2470.294,13.32,0.027,28.4
2019-12-21T02:28:03,42.805,6.029,-0.012,0.013,-0.068,99.0,104.0,98.0,13.3,1505.3,326.5,-0.7,1.8,2470.273,13.32,0.017,317.3
2019-12-21T02:31:03,42.805,6.029,0.011,0.009,-0.058,99.0,105.0,99.0,13.3,1505.3,324.6,-0.7,1.8,2470.285,13.32,0.014,50.7
2019-12-21T02:34:03,42.805,6.029,0.035,0.018,-0.018,100.0,104.0,97.0,13.4,1505.3,327.8,-0.7,1.8,2470.253,13.32,0.039,62.8
2019-12-21T02:37:03,42.805,6.029,0.023,0.021,-0.012,99.0,105.0,99.0,13.3,1505.3,327.6,-0.7,1.9,2470.29,13.33,0.031,47.6
2019-12-21T02:40:03,42.805,6.029,0.028,0.024,0.003,100.0,102.0,98.0,13.4,1505.3,324.3,-0.7,1.8,2470.287,13.33,0.036,49.4
2019-12-21T02:43:03,42.805,6.029,-0.025,0.015,-0.047,100.0,102.0,98.0,13.4,1505.3,326.9,-0.7,1.8,2470.253,13.32,0.029,301.0
2019-12-21T02:46:03,42.805,6.029,0.016,0.037,-0.064,99.0,101.0,99.0,13.4,1505.3,323.7,-0.7,1.8,2470.289,13.33,0.04,23.4
2019-12-21T02:49:03,42.805,6.029,-0.038,0.022,-0.038,99.0,102.0,98.0,13.4,1505.3,326.8,-0.7,1.8,2470.27,13.32,0.043,300.1
2019-12-21T02:52:03,42.805,6.029,-0.009,0.015,-0.015,101.0,103.0,98.0,13.4,1505.3,326.0,-0.7,1.8,2470.275,13.32,0.017,329.0
2019-12-21T02:55:03,42.805,6.029,0.014,0.003,-0.03,101.0,102.0,98.0,13.3,1505.3,328.1,-0.8,1.8,2470.258,13.32,0.014,77.9
2019-12-21T02:58:03,42.805,6.029,0.014,0.003,-0.045,100.0,105.0,98.0,13.4,1505.3,325.5,-0.7,1.8,2470.269,13.33,0.014,77.9
2019-12-21T03:04:03,42.805,6.029,0.006,0.009,-0.064,100.0,101.0,98.0,13.4,1505.2,325.2,-0.7,1.9,2470.268,13.3,0.01,33.7
2019-12-21T03:10:03,42.805,6.029,0.003,0.037,-0.032,101.0,100.0,99.0,13.4,1505.2,324.4,-0.8,1.8,2470.281,13.3,0.037,4.6
2019-12-21T03:13:03,42.805,6.029,-0.005,0.016,-0.023,101.0,103.0,98.0,13.4,1505.3,323.3,-0.7,1.8,2470.329,13.31,0.016,342.6
2019-12-21T03:16:03,42.805,6.029,-0.006,0.003,-0.038,102.0,103.0,99.0,13.3,1505.3,325.2,-0.7,1.8,2470.286,13.31,0.006,296.6
2019-12-21T03:19:03,42.805,6.029,-0.051,0.002,-0.086,100.0,103.0,100.0,13.4,1505.3,326.2,-0.7,1.8,2470.287,13.32,0.051,272.2
2019-12-21T03:22:03,42.805,6.029,-0.017,0.006,-0.066,102.0,103.0,99.0,13.3,1505.3,327.6,-0.7,1.8,2470.293,13.32,0.018,289.4
2019-12-21T03:25:03,42.805,6.029,-0.012,0.009,-0.04,102.0,103.0,99.0,13.4,1505.3,326.0,-0.7,1.8,2470.288,13.32,0.015,306.9
2019-12-21T03:28:03,42.805,6.029,-0.029,0.0,-0.041,101.0,102.0,99.0,13.4,1505.3,324.9,-0.7,1.8,2470.253,13.32,0.028,270.0
2019-12-21T03:31:03,42.805,6.029,-0.001,0.002,-0.052,102.0,101.0,99.0,13.4,1505.3,327.6,-0.7,1.8,2470.234,13.32,0.002,333.4
2019-12-21T03:34:03,42.805,6.029,-0.003,0.01,-0.026,101.0,104.0,100.0,13.4,1505.3,325.5,-0.7,1.8,2470.252,13.32,0.01,343.3
2019-12-21T03:37:03,42.805,6.029,-0.023,-0.006,-0.059,101.0,104.0,99.0,13.3,1505.3,326.3,-0.7,1.8,2470.275,13.32,0.023,255.4
2019-12-21T03:40:03,42.805,6.029,-0.045,0.009,-0.028,101.0,104.0,99.0,13.3,1505.3,325.5,-0.7,1.8,2470.273,13.32,0.045,281.3
2019-12-21T03:43:03,42.805,6.029,-0.041,-0.013,-0.046,102.0,102.0,99.0,13.4,1505.3,324.8,-0.7,1.8,2470.235,13.32,0.043,252.4
2019-12-21T03:46:03,42.805,6.029,-0.02,0.002,-0.074,101.0,102.0,100.0,13.4,1505.3,323.9,-0.7,1.9,2470.265,13.32,0.02,275.7
2019-12-21T03:49:03,42.805,6.029,-0.037,-0.022,-0.053,103.0,103.0,98.0,13.4,1505.3,325.3,-0.7,1.8,2470.272,13.32,0.043,239.3
2019-12-21T03:52:03,42.805,6.029,-0.028,-0.013,-0.033,102.0,102.0,99.0,13.4,1505.3,328.6,-0.7,1.8,2470.247,13.32,0.03,245.1
2019-12-21T03:55:03,42.805,6.029,-0.011,0.0,-0.011,100.0,102.0,99.0,13.4,1505.3,324.9,-0.7,1.8,2470.25,13.32,0.011,270.0
2019-12-21T03:58:03,42.805,6.029,-0.057,0.012,-0.054,103.0,101.0,98.0,13.4,1505.3,326.3,-0.7,1.8,2470.222,13.32,0.058,281.9
2019-12-21T04:04:03,42.805,6.029,-0.02,0.003,-0.035,100.0,102.0,99.0,13.4,1505.2,327.7,-0.7,1.8,2470.299,13.3,0.02,278.5
2019-12-21T04:10:03,42.805,6.029,0.0,0.03,-0.021,100.0,103.0,98.0,13.4,1505.2,326.1,-0.7,1.8,2470.356,13.29,0.03,0.0
2019-12-21T04:13:03,42.805,6.029,-0.061,0.006,-0.043,100.0,104.0,98.0,13.3,1505.3,326.9,-0.7,1.9,2470.335,13.31,0.061,275.6
2019-12-21T04:16:03,42.805,6.029,-0.023,0.018,-0.049,102.0,103.0,99.0,13.4,1505.3,326.5,-0.7,1.8,2470.294,13.31,0.029,308.0
2019-12-21T04:19:03,42.805,6.029,-0.043,0.024,-0.049,101.0,104.0,100.0,13.4,1505.3,323.5,-0.7,1.9,2470.288,13.32,0.049,299.2
2019-12-21T04:22:03,42.805,6.029,-0.035,0.017,-0.039,102.0,103.0,100.0,13.4,1505.3,324.0,-0.7,1.8,2470.312,13.32,0.038,295.9
2019-12-21T04:25:03,42.805,6.029,-0.002,0.007,-0.057,102.0,103.0,100.0,13.4,1505.3,327.3,-0.7,1.8,2470.243,13.32,0.007,344.1
2019-12-21T04:28:03,42.805,6.029,-0.01,0.002,-0.05,102.0,103.0,100.0,13.4,1505.3,327.9,-0.7,1.9,2470.257,13.32,0.01,281.3
2019-12-21T04:31:03,42.805,6.029,-0.001,0.017,-0.049,101.0,105.0,100.0,13.4,1505.3,325.2,-0.7,1.8,2470.255,13.32,0.017,356.6
2019-12-21T04:34:03,42.805,6.029,0.008,-0.001,-0.034,102.0,103.0,100.0,13.3,1505.3,327.4,-0.7,1.9,2470.257,13.32,0.008,97.1
2019-12-21T04:37:03,42.805,6.029,-0.014,0.011,-0.021,102.0,105.0,101.0,13.3,1505.3,326.0,-0.7,1.8,2470.256,13.32,0.017,308.2
2019-12-21T04:40:03,42.805,6.029,-0.029,-0.009,-0.091,101.0,101.0,101.0,13.3,1505.3,326.1,-0.7,1.9,2470.253,13.32,0.03,252.8
2019-12-21T04:43:03,42.805,6.029,-0.029,0.009,-0.02,100.0,104.0,100.0,13.4,1505.3,324.9,-0.7,1.8,2470.263,13.32,0.03,287.2
2019-12-21T04:46:03,42.805,6.029,-0.022,0.024,-0.051,101.0,101.0,99.0,13.3,1505.3,324.0,-0.7,1.8,2470.237,13.32,0.032,317.5
2019-12-21T04:49:03,42.805,6.029,-0.056,0.028,-0.055,100.0,103.0,100.0,13.4,1505.3,327.6,-0.7,1.8,2470.277,13.32,0.062,296.6
2019-12-21T04:52:03,42.805,6.029,-0.054,0.03,-0.045,99.0,102.0,99.0,13.3,1505.3,326.2,-0.7,1.9,2470.253,13.32,0.061,299.1
2019-12-21T04:55:03,42.805,6.029,-0.058,0.013,-0.072,102.0,102.0,98.0,13.3,1505.3,324.2,-0.7,1.8,2470.26,13.32,0.059,282.6
2019-12-21T04:58:03,42.805,6.029,-0.012,0.027,-0.02,101.0,102.0,98.0,13.3,1505.3,325.3,-0.7,1.8,2470.194,13.32,0.029,336.0
2019-12-21T05:04:03,42.805,6.029,-0.022,0.011,-0.079,100.0,104.0,98.0,13.3,1505.2,327.8,-0.8,1.8,2470.303,13.3,0.024,296.6
2019-12-21T05:07:03,42.805,6.029,-0.025,0.02,-0.037,103.0,104.0,99.0,13.4,1505.3,323.6,-0.7,1.9,2470.294,13.31,0.032,308.7
2019-12-21T05:10:03,42.805,6.029,-0.025,0.012,-0.041,101.0,103.0,100.0,13.4,1505.3,327.4,-0.7,1.8,2470.268,13.32,0.027,295.6
2019-12-21T05:13:03,42.805,6.029,-0.029,0.009,-0.061,102.0,102.0,99.0,13.3,1505.3,325.4,-0.7,1.8,2470.238,13.32,0.03,287.2
2019-12-21T05:16:03,42.805,6.029,-0.028,0.004,-0.097,101.0,103.0,99.0,13.3,1505.3,326.5,-0.7,1.8,2470.253,13.32,0.028,278.1
2019-12-21T05:19:03,42.805,6.029,-0.027,0.006,-0.076,101.0,102.0,99.0,13.4,1505.3,326.3,-0.7,1.8,2470.281,13.32,0.027,282.5
2019-12-21T05:22:03,42.805,6.029,-0.016,0.014,-0.027,102.0,104.0,100.0,13.4,1505.3,325.9,-0.7,1.9,2470.251,13.32,0.021,311.2
2019-12-21T05:25:03,42.805,6.029,-0.007,0.026,-0.042,102.0,104.0,99.0,13.4,1505.3,326.1,-0.7,1.8,2470.21,13.32,0.026,344.9
2019-12-21T05:28:03,42.805,6.029,-0.011,0.019,-0.033,101.0,103.0,99.0,13.4,1505.3,324.5,-0.7,1.8,2470.247,13.32,0.021,329.9
2019-12-21T05:31:03,42.805,6.029,-0.033,0.003,-0.056,101.0,104.0,99.0,13.4,1505.3,324.9,-0.7,1.8,2470.242,13.32,0.033,275.2
2019-12-21T05:34:03,42.805,6.029,-0.035,0.025,-0.035,101.0,104.0,99.0,13.4,1505.3,325.7,-0.7,1.8,2470.285,13.32,0.043,305.5
2019-12-21T05:37:03,42.805,6.029,-0.01,0.019,-0.023,100.0,104.0,99.0,13.4,1505.3,325.9,-0.7,1.8,2470.273,13.32,0.021,332.2
2019-12-21T05:40:03,42.805,6.029,-0.007,0.018,-0.017,101.0,104.0,99.0,13.4,1505.3,327.4,-0.7,1.8,2470.225,13.32,0.019,338.8
2019-12-21T05:43:03,42.805,6.029,-0.021,0.027,-0.054,100.0,105.0,99.0,13.4,1505.3,326.8,-0.7,1.9,2470.283,13.32,0.034,322.1
2019-12-21T05:46:03,42.805,6.029,-0.002,0.053,-0.01,102.0,102.0,99.0,13.4,1505.3,327.4,-0.7,1.8,2470.216,13.32,0.053,357.8
2019-12-21T05:49:03,42.805,6.029,-0.033,0.049,-0.057,101.0,105.0,99.0,13.4,1505.3,324.8,-0.7,1.8,2470.25,13.33,0.059,326.0
2019-12-21T05:52:03,42.805,6.029,0.0,0.038,-0.029,100.0,105.0,98.0,13.4,1505.3,327.0,-0.7,1.8,2470.278,13.33,0.038,0.0
2019-12-21T05:55:03,42.805,6.029,-0.051,0.019,-0.059,99.0,103.0,99.0,13.4,1505.3,323.2,-0.7,1.8,2470.222,13.33,0.054,290.4
2019-12-21T05:58:03,42.805,6.029,0.02,0.027,-0.047,100.0,103.0,98.0,13.4,1505.3,326.4,-0.7,1.8,2470.176,13.33,0.033,36.5
2019-12-21T06:04:03,42.805,6.029,-0.004,0.038,-0.061,99.0,103.0,98.0,13.3,1505.3,326.4,-0.7,1.8,2470.253,13.31,0.038,354.0
2019-12-21T06:07:03,42.805,6.029,-0.039,0.034,-0.041,99.0,104.0,97.0,13.3,1505.3,326.0,-0.7,1.8,2470.204,13.31,0.051,311.1
2019-12-21T06:10:03,42.805,6.029,0.013,0.053,-0.017,99.0,103.0,98.0,13.4,1505.3,323.5,-0.7,1.8,2470.222,13.32,0.054,13.8
2019-12-21T06:13:03,42.805,6.029,0.011,0.009,-0.067,100.0,105.0,98.0,13.3,1505.3,323.5,-0.7,1.8,2470.222,13.32,0.014,50.7
2019-12-21T06:16:03,42.805,6.029,-0.044,0.02,-0.072,99.0,105.0,99.0,13.4,1505.3,327.4,-0.7,1.8,2470.256,13.32,0.048,294.4
2019-12-21T06:19:03,42.805,6.029,-0.007,0.034,-0.065,100.0,104.0,97.0,13.4,1505.3,327.6,-0.7,1.8,2470.207,13.32,0.034,348.4
2019-12-21T06:25:03,42.805,6.029,-0.017,0.056,-0.052,99.0,103.0,97.0,13.4,1505.2,324.1,-0.8,1.9,2470.274,13.3,0.058,343.1
2019-12-21T06:28:03,42.805,6.029,-0.019,0.041,-0.024,100.0,103.0,97.0,13.4,1505.3,324.2,-0.7,1.8,2470.278,13.31,0.045,335.1
2019-12-21T06:31:03,42.805,6.029,-0.019,-0.001,-0.09,101.0,103.0,97.0,13.4,1505.3,326.4,-0.7,1.8,2470.231,13.32,0.019,267.0
2019-12-21T06:34:03,42.805,6.029,-0.029,0.06,-0.031,99.0,104.0,98.0,13.4,1505.3,326.8,-0.7,1.8,2470.244,13.32,0.066,334.2
2019-12-21T06:37:03,42.805,6.029,-0.012,0.011,-0.028,100.0,104.0,98.0,13.3,1505.3,324.8,-0.7,1.9,2470.237,13.32,0.016,312.5
2019-12-21T06:40:03,42.805,6.029,-0.024,0.05,-0.033,99.0,105.0,99.0,13.4,1505.3,324.0,-0.7,1.9,2470.242,13.32,0.055,334.4
2019-12-21T06:43:03,42.805,6.029,0.008,0.041,-0.052,99.0,103.0,98.0,13.3,1505.3,327.7,-0.7,1.9,2470.213,13.32,0.041,11.0
2019-12-21T06:46:03,42.805,6.029,-0.005,0.042,-0.032,100.0,105.0,99.0,13.4,1505.3,325.9,-0.7,1.8,2470.225,13.32,0.042,353.2
2019-12-21T06:49:03,42.805,6.029,-0.014,0.063,-0.018,100.0,104.0,97.0,13.4,1505.3,323.3,-0.7,1.8,2470.213,13.32,0.064,347.5
2019-12-21T06:52:03,42.805,6.029,-0.018,0.046,-0.048,100.0,104.0,98.0,13.4,1505.3,323.9,-0.7,1.8,2470.169,13.33,0.049,338.6
2019-12-21T06:55:03,42.805,6.029,-0.009,0.047,-0.054,100.0,103.0,98.0,13.3,1505.3,325.5,-0.7,1.9,2470.181,13.33,0.047,349.2
2019-12-21T07:04:03,42.805,6.029,-0.006,0.029,-0.045,102.0,105.0,97.0,13.3,1505.2,326.6,-0.7,1.8,2470.263,13.29,0.029,348.3
2019-12-21T07:07:03,42.805,6.029,-0.019,0.043,-0.05,102.0,103.0,98.0,13.3,1505.3,326.5,-0.7,1.8,2470.229,13.31,0.047,336.2
2019-12-21T07:10:03,42.805,6.029,-0.036,0.024,-0.076,99.0,103.0,98.0,13.3,1505.3,323.7,-0.7,1.9,2470.228,13.31,0.043,303.7
2019-12-21T07:13:03,42.805,6.029,-0.033,0.027,-0.078,100.0,104.0,99.0,13.4,1505.3,326.6,-0.7,1.8,2470.229,13.32,0.042,309.3
2019-12-21T07:16:03,42.805,6.029,-0.01,0.045,-0.002,98.0,105.0,99.0,13.4,1505.3,326.9,-0.7,1.9,2470.244,13.32,0.046,347.5
2019-12-21T07:19:03,42.805,6.029,-0.023,0.029,-0.063,100.0,103.0,98.0,13.4,1505.3,326.4,-0.7,1.8,2470.209,13.32,0.037,321.6
2019-12-21T07:22:03,42.805,6.029,-0.024,0.039,-0.06,100.0,104.0,98.0,13.3,1505.3,326.7,-0.7,1.8,2470.215,13.32,0.045,328.4
2019-12-21T07:25:03,42.805,6.029,-0.018,0.043,-0.067,100.0,104.0,98.0,13.4,1505.3,324.4,-0.7,1.8,2470.169,13.32,0.046,337.3
2019-12-21T07:28:03,42.805,6.029,-0.045,0.032,-0.066,100.0,103.0,98.0,13.4,1505.3,327.9,-0.7,1.8,2470.186,13.32,0.055,305.4
2019-12-21T07:31:03,42.805,6.029,-0.034,0.028,-0.053,99.0,102.0,98.0,13.4,1505.3,326.4,-0.7,1.8,2470.179,13.32,0.044,309.5
2019-12-21T07:34:03,42.805,6.029,-0.004,0.035,-0.041,99.0,104.0,98.0,13.4,1505.3,326.9,-0.7,1.9,2470.199,13.32,0.035,353.5
2019-12-21T07:37:03,42.805,6.029,-0.031,-0.002,-0.083,99.0,102.0,98.0,13.4,1505.3,324.6,-0.7,1.8,2470.141,13.32,0.031,266.3
2019-12-21T07:40:03,42.805,6.029,-0.012,0.037,-0.06,101.0,103.0,98.0,13.4,1505.3,323.3,-0.7,1.9,2470.186,13.32,0.038,342.0
2019-12-21T07:43:03,42.805,6.029,-0.02,0.03,-0.053,101.0,104.0,97.0,13.4,1505.3,324.0,-0.7,1.8,2470.169,13.33,0.036,326.3
2019-12-21T07:46:03,42.805,6.029,-0.014,0.032,-0.057,100.0,105.0,98.0,13.4,1505.3,327.3,-0.7,1.9,2470.181,13.33,0.034,336.4
2019-12-21T07:49:03,42.805,6.029,-0.025,0.05,-0.043,101.0,105.0,98.0,13.3,1505.3,325.1,-0.7,1.9,2470.209,13.33,0.055,333.4
2019-12-21T07:52:03,42.805,6.029,-0.037,0.045,-0.068,99.0,104.0,100.0,13.4,1505.3,326.4,-0.7,1.8,2470.172,13.33,0.058,320.6
2019-12-21T07:55:03,42.805,6.029,-0.029,0.028,-0.027,100.0,103.0,99.0,13.4,1505.3,323.2,-0.7,1.8,2470.183,13.33,0.04,314.0
2019-12-21T07:58:03,42.805,6.029,-0.054,0.052,-0.053,98.0,103.0,98.0,13.3,1505.3,323.8,-0.7,1.8,2470.191,13.33,0.074,313.9
2019-12-21T08:04:03,42.805,6.029,-0.002,0.032,-0.055,99.0,103.0,99.0,13.4,1505.3,323.7,-0.8,1.8,2470.222,13.31,0.032,356.4
2019-12-21T08:07:03,42.805,6.029,-0.015,0.061,-0.064,100.0,102.0,97.0,13.3,1505.3,328.5,-0.7,1.8,2470.182,13.31,0.062,346.2
2019-12-21T08:10:03,42.805,6.029,-0.018,0.026,-0.059,99.0,103.0,98.0,13.3,1505.3,327.2,-0.7,1.9,2470.2,13.32,0.031,325.3
2019-12-21T08:13:03,42.805,6.029,-0.017,0.03,-0.045,100.0,103.0,98.0,13.4,1505.3,326.3,-0.7,1.8,2470.211,13.32,0.034,330.5
2019-12-21T08:16:03,42.805,6.029,-0.006,0.025,-0.048,100.0,104.0,98.0,13.4,1505.3,325.4,-0.7,1.8,2470.2,13.32,0.025,346.5
2019-12-21T08:19:03,42.805,6.029,0.002,0.03,-0.026,100.0,104.0,98.0,13.4,1505.3,327.4,-0.7,1.8,2470.175,13.33,0.03,3.8
2019-12-21T08:22:03,42.805,6.029,-0.024,0.039,-0.059,100.0,103.0,97.0,13.4,1505.3,323.0,-0.7,1.9,2470.199,13.32,0.045,328.4
2019-12-21T08:25:03,42.805,6.029,-0.038,0.026,-0.068,99.0,105.0,98.0,13.4,1505.3,326.0,-0.7,1.8,2470.205,13.32,0.046,304.4
2019-12-21T08:28:03,42.805,6.029,-0.025,0.025,-0.046,99.0,105.0,99.0,13.4,1505.3,325.1,-0.7,1.8,2470.2,13.33,0.035,315.0
2019-12-21T08:31:03,42.805,6.029,-0.019,0.035,-0.063,101.0,106.0,99.0,13.3,1505.3,326.0,-0.7,1.8,2470.182,13.33,0.039,331.5
2019-12-21T08:34:03,42.805,6.029,-0.005,0.041,-0.027,99.0,106.0,98.0,13.4,1505.3,327.9,-0.7,1.8,2470.202,13.33,0.041,353.0
2019-12-21T08:37:03,42.805,6.029,-0.017,0.026,-0.032,102.0,104.0,97.0,13.4,1505.3,327.6,-0.7,1.8,2470.116,13.33,0.031,326.8
2019-12-21T08:40:03,42.805,6.029,-0.021,0.048,-0.029,100.0,104.0,98.0,13.4,1505.3,326.3,-0.7,1.9,2470.151,13.33,0.052,336.4
2019-12-21T08:43:03,42.805,6.029,-0.018,0.034,-0.057,99.0,106.0,97.0,13.3,1505.3,327.3,-0.7,1.8,2470.156,13.33,0.038,332.1
2019-12-21T08:46:03,42.805,6.029,-0.006,0.031,-0.045,101.0,104.0,98.0,13.4,1505.3,326.7,-0.7,1.9,2470.17,13.33,0.031,349.0
2019-12-21T08:49:03,42.805,6.029,-0.027,0.041,-0.061,99.0,106.0,98.0,13.4,1505.3,326.5,-0.7,1.8,2470.236,13.33,0.049,326.6
2019-12-21T08:52:03,42.805,6.029,-0.007,0.046,-0.04,99.0,105.0,99.0,13.3,1505.3,323.9,-0.8,1.8,2470.183,13.33,0.046,351.3
2019-12-21T08:55:03,42.805,6.029,-0.03,0.022,-0.043,101.0,104.0,98.0,13.4,1505.3,326.3,-0.7,1.9,2470.189,13.33,0.037,306.3
2019-12-21T08:58:03,42.805,6.029,-0.007,0.02,-0.049,100.0,104.0,98.0,13.4,1505.3,327.1,-0.7,1.8,2470.182,13.33,0.021,340.7
2019-12-21T09:04:03,42.805,6.029,-0.024,0.063,-0.033,101.0,104.0,97.0,13.4,1505.3,327.9,-0.7,1.8,2470.164,13.31,0.067,339.1
2019-12-21T09:07:03,42.805,6.029,-0.044,0.049,-0.049,100.0,105.0,98.0,13.3,1505.3,324.9,-0.7,1.8,2470.201,13.31,0.065,318.1
2019-12-21T09:10:03,42.805,6.029,-0.04,0.052,-0.05,100.0,105.0,98.0,13.3,1505.3,324.1,-0.7,1.9,2470.165,13.32,0.065,322.4
2019-12-21T09:13:03,42.805,6.029,-0.015,0.044,-0.056,100.0,105.0,98.0,13.4,1505.3,325.1,-0.7,1.8,2470.184,13.32,0.046,341.2
2019-12-21T09:16:03,42.805,6.029,-0.035,0.045,-0.055,99.0,104.0,99.0,13.4,1505.3,325.6,-0.8,1.8,2470.173,13.33,0.057,322.1
2019-12-21T09:19:03,42.805,6.029,-0.012,0.048,-0.046,98.0,104.0,98.0,13.4,1505.3,325.6,-0.7,1.8,2470.176,13.33,0.049,346.0
2019-12-21T09:22:03,42.805,6.029,-0.032,0.022,-0.067,99.0,105.0,99.0,13.4,1505.3,323.8,-0.7,1.8,2470.196,13.33,0.038,304.5
2019-12-21T09:25:03,42.805,6.029,-0.006,0.038,-0.008,99.0,104.0,99.0,13.3,1505.3,322.8,-0.7,1.8,2470.221,13.33,0.038,351.0
2019-12-21T09:28:03,42.805,6.029,-0.016,0.06,-0.062,100.0,104.0,98.0,13.4,1505.3,328.2,-0.7,1.9,2470.185,13.33,0.062,345.1
2019-12-21T09:31:03,42.805,6.029,-0.02,0.055,-0.069,100.0,105.0,98.0,13.4,1505.3,326.6,-0.7,1.8,2470.177,13.33,0.058,340.0
2019-12-21T09:34:03,42.805,6.029,-0.002,0.036,-0.016,100.0,105.0,99.0,13.4,1505.3,326.3,-0.7,1.8,2470.202,13.33,0.036,356.8
2019-12-21T09:37:03,42.805,6.029,-0.044,0.04,-0.072,100.0,104.0,98.0,13.4,1505.3,323.3,-0.7,1.8,2470.195,13.33,0.059,312.3
2019-12-21T09:40:03,42.805,6.029,0.003,0.042,-0.019,101.0,104.0,98.0,13.3,1505.3,326.5,-0.7,1.9,2470.158,13.33,0.042,4.1
2019-12-21T09:43:03,42.805,6.029,0.003,0.052,-0.05,101.0,105.0,96.0,13.3,1505.3,325.9,-0.6,1.8,2470.224,13.33,0.052,3.3
2019-12-21T09:46:03,42.805,6.029,-0.01,0.033,-0.064,99.0,104.0,98.0,13.3,1505.3,324.4,-0.7,1.8,2470.163,13.33,0.034,343.1
2019-12-21T09:49:03,42.805,6.029,-0.009,0.058,-0.051,102.0,103.0,98.0,13.4,1505.3,325.6,-0.7,1.8,2470.16,13.33,0.058,351.2
2019-12-21T09:52:03,42.805,6.029,-0.004,0.042,-0.041,100.0,104.0,98.0,13.4,1505.3,322.8,-0.7,1.8,2470.225,13.33,0.042,354.6
2019-12-21T09:55:03,42.805,6.029,0.019,0.048,-0.005,100.0,103.0,99.0,13.4,1505.3,323.0,-0.7,1.8,2470.184,13.33,0.051,21.6
2019-12-21T09:58:03,42.805,6.029,-0.022,0.026,-0.071,100.0,106.0,97.0,13.3,1505.3,327.5,-0.7,1.8,2470.177,13.33,0.034,319.8
2019-12-21T10:04:03,42.805,6.029,0.028,0.031,-0.022,100.0,104.0,99.0,13.4,1505.3,326.5,-0.8,1.8,2470.244,13.31,0.041,42.1
2019-12-21T10:07:03,42.805,6.029,-0.054,0.049,-0.096,100.0,105.0,98.0,13.3,1505.3,327.8,-0.7,1.8,2470.232,13.32,0.072,312.2
2019-12-21T10:10:03,42.805,6.029,0.012,0.02,-0.058,100.0,105.0,98.0,13.4,1505.3,323.8,-0.7,1.8,2470.189,13.32,0.023,31.0
2019-12-21T10:13:03,42.805,6.029,-0.024,0.021,-0.046,100.0,103.0,98.0,13.3,1505.3,326.7,-0.7,1.9,2470.23,13.32,0.031,311.2
2019-12-21T10:16:03,42.805,6.029,0.006,0.02,-0.048,101.0,103.0,98.0,13.3,1505.3,328.7,-0.7,1.8,2470.239,13.32,0.02,16.7
2019-12-21T10:19:03,42.805,6.029,-0.03,0.033,-0.066,98.0,105.0,98.0,13.3,1505.3,323.3,-0.7,1.8,2470.253,13.33,0.044,317.7